Pagrindinis puslapis
METAR-TAF:

METAR-TAF

Oro uostai :

Hutchinson County Airport

Borger, Teksasas, Jungtinės Amerikos Valstijos

platuma: 35-41-42N, ilguma: 101-23-42W, Aukštis: 931 m

Dabartinis oras

Ataskaita buvo paskelbta 47 minutes, ne 15:51 UTC
Vėjas 6 kt nuo kintamojo kryptimis
Temperatūra 28°C
Drėgmė 30%
Slėgis 1022 hPa
Matomumas: 16.1 km
Giedras dangus

METAR: KBGD 031551Z AUTO VRB06KT 10SM CLR 28/09 A3018 RMK AO2 SLP177 T02780094

Laikas: 11:38 (16:38 UTC)


TAF: trūkstamas

Orai ataskaitas ir orų prognozės (METAR, TAF).

turimą stotys yra geltonos ir raudonos taškus žemėlapyje.

Perkelti pele per norėdami pamatyti stoties vardą.

Tada spustelėkite, norėdami matyti oro stebėjimo ir prognozės.

Norėdami pakeisti žemėlapį: spustelėkite ant žalios mygtukų su juodo kryžiaus žemyn,; žalią mygtuką su brūkšneliu, jei norite nutolinti; arba žalių rodyklių gretimoms žemėlapius.


METAR-TAF: